916  
ASUS41 KALY 201210  
RWRALY  
 
NEW YORK STATE HOURLY WEATHER ROUNDUP  
NATIONAL WEATHER SERVICE ALBANY NY  
800 AM EDT SAT OCT 20 2018  
 
NOTE: "FAIR" INDICATES FEW OR NO CLOUDS BELOW 12,000 FEET WITH NO  
SIGNIFICANT WEATHER AND/OR NO S TO VISIBILITY
.  
 
NYZ032-033-038>043-046>054-057>066-NYZ062>081-082-084-201300-  
EAST  
 
 
CITY SKY/WX TMP DP RH WIND PRES REMARKS
 
ALBANY CLOUDY 53 45 74 S9 29.64S  
GLENS FALLS CLOUDY 50 44 80 S9 29.60R  
POUGHKEEPSIE CLOUDY 53 47 79 VRB7 29.71R  
NEWBURGH DRIZZLE 52 50 93 SW12 29.72S  
MONTGOMERY CLOUDY 51 48 89 SW14 29.70F  
WHITE PLAINS CLOUDY 53 50 89 W9 29.74S  
ISLIP CLOUDY 57 54 89 SW15 29.75S  
NEW YORK CITY CLOUDY 57 51 80 SW12 29.76R  
CENTRAL PARK CLOUDY 55 51 86 MISG 29.79R  

 
 
NYZ005>009-017-018-044>046-055-056-201300-  
CENTRAL  
 
 
CITY SKY/WX TMP DP RH WIND PRES REMARKS
 
FULTON MOCLDY 49 42 77 SW8 29.62R  
SYRACUSE MOCLDY 49 45 86 SW12 29.63R  
ROME CLOUDY 52 43 71 W14G28 29.63R  
ELMIRA LGT RAIN 51 42 71 SW8 29.68R  
BINGHAMTON CLOUDY 47 41 80 SW12 29.67R  
MONTICELLO CLOUDY 48 46 93 W8 29.71R  

 
 
NYZ026>034-041>043-087-201300-  
NORTH  
 
 
CITY SKY/WX TMP DP RH WIND PRES REMARKS
 
WATERTOWN MOCLDY 50 45 83 W20G30 29.56R  
FORT DRUM NOT AVBL  
OGDENSBURG CLOUDY 50 46 85 SW12G22 29.48R  
MASSENA CLOUDY 50 48 93 SW10G22 29.47R  
SARANAC LAKE LGT RAIN 44 41 89 SW15G32 29.50R  
PLATTSBURGH CLOUDY 53 39 59 SW6 29.48R  

 
 
NYZ001>004-010>016-019>021-085-201300-  
WEST  
 
 
CITY SKY/WX TMP DP RH WIND PRES REMARKS
 
NIAGARA FALLS FAIR 46 40 79 W9 29.66R  
BUFFALO FAIR 47 44 90 W9 29.67R  
DUNKIRK MOCLDY 51 46 83 W14G24 29.70R  
JAMESTOWN CLOUDY 46 45 96 W12 29.71R  
WELLSVILLE LGT RAIN 46 44 93 W13G21 29.69R FOG  
ROCHESTER FAIR 49 47 93 W10 29.65R  
PENN YAN CLOUDY 50 44 80 SW8 29.66R  

 
 
KEY  
WCI = WIND CHILL INDEX  
VSB = VISIBILITY  
HX = HEAT INDEX  

 
 
 
CLICK HERE TO GO TO PREVIOUS BULLETINS.

The Nexlab NY Page
The Nexlab VT Page
The Nexlab MA Page
The Nexlab CT Page Main Text Page